{"data":{"norad_id":56816,"epoch":"2026-05-25T02:21:18.375840Z","epoch_age_seconds":76864,"freshness":"FRESH","line1":"1 56816U 23078BB  26145.09812935 -.00000318  00000+0 -18850-4 0  9990","line2":"2 56816  69.9987 131.6063 0003814 262.8938  97.1787 14.98332744164623","mean_motion":14.98332744,"eccentricity":0.0003814,"inclination_deg":69.9987,"raan_deg":131.6063,"arg_perigee_deg":262.8938,"mean_anomaly_deg":97.1787,"bstar":-1.885e-5,"rev_number":16462,"period_min":96.106823118323,"perigee_km":569.39660503151,"apogee_km":574.69820569593,"semimajor_km":6950.1844053637,"source":"CELESTRAK","updated_at":"2026-05-25T13:38:18.161427Z"}}